Vorticity
3 3 9 -2 5 1 4 5 14 14 8 7 19 6 6 5 3 7 7 7 3 7 6 7 7 6 5 5 7 3 5 4 6 8 7 6 6 6 6 6 5 4 5 6 6 6 8 5 5
-5 45 40 -1 10 -4 -1 8 7 7 6 5 4 6 5 6 8 8 6 4 5 6 7 9 7 5 5 10 4 3 7 6 7 7 6 5 6 7 7 6 6 5 4 3 4 6 7 7 2
5 -1 19 8 16 2 7 4 9 2 6 7 7 8 6 8 6 6 6 5 4 4 6 7 6 7 9 5 4 5 5 6 7 6 7 5 5 5 4 4 5 5 4 3 4 5 5 5 8
2 -2 8 11 1 8 7 5 5 3 7 7 5 5 8 5 7 10 7 5 6 4 4 4 9 13 3 5 6 7 7 7 8 7 6 5 4 5 5 9 10 10 13 11 6 7 6 6 5
21 10 7 9 6 5 3 11 17 8 7 6 4 8 9 7 4 7 7 8 6 8 3 7 8 6 3 3 7 9 9 8 7 6 6 4 5 6 3 8 13 10 12 14 15 12 7 10 10
6 7 5 4 5 18 -1 8 8 8 9 9 15 12 11 9 9 6 7 4 11 9 5 8 8 6 6 8 6 7 7 5 4 5 6 8 7 8 10 10 7 3 2 4 9 17 14 9 7
-1 3 7 5 5 8 7 12 5 6 12 5 19 15 13 9 12 11 7 8 13 12 6 12 5 6 10 4 5 4 5 6 8 8 8 7 5 0 9 10 4 2 6 1 -10 3 3 4 15
2 -6 6 8 2 7 8 7 4 8 11 16 -3 5 15 19 13 11 10 13 20 9 10 6 4 9 6 5 5 6 7 6 3 5 4 3 6 3 3 7 4 6 2 2 -5 31 33 1 -10
-16 -3 7 10 4 6 5 8 7 8 7 11 -2 10 21 12 11 13 10 17 8 6 6 4 9 5 5 7 8 4 2 3 3 6 8 14 5 4 7 3 6 3 7 10 13 12 5 0 12
-2 10 7 9 7 7 5 4 8 11 9 9 8 8 29 18 14 8 18 12 8 4 5 8 6 8 8 4 3 4 7 10 7 2 10 4 4 7 4 6 8 5 -0 9 11 2 7 8 -1
2 -3 9 13 7 8 2 11 4 16 4 15 11 3 3 23 10 21 5 7 3 7 9 0 7 7 6 5 4 5 6 9 10 7 8 3 3 6 5 5 5 11 0 4 11 -2 1 3 2
15 11 8 10 14 9 9 5 4 7 3 3 10 2 6 7 19 12 0 4 4 8 2 7 9 6 7 8 5 7 1 10 7 7 11 6 3 5 -0 2 3 -11 8 5 7 5 5 3 11
15 5 15 4 6 12 13 6 6 6 10 0 7 9 6 6 5 5 7 8 9 7 7 4 5 8 4 7 8 7 7 10 9 7 7 4 7 6 3 2 3 0 5 2 6 -0 -1 0 -2
17 -1 18 12 12 14 15 13 7 7 5 3 9 9 5 3 6 5 3 7 4 4 4 8 7 5 4 3 4 4 4 6 7 2 0 5 5 6 6 6 4 5 5 3 3 4 4 7 9
-5 -5 13 16 4 23 18 18 10 11 9 6 8 6 9 7 7 8 7 5 4 3 5 6 6 5 6 4 5 6 10 6 6 7 8 7 5 6 3 2 3 5 5 2 3 5 4 5 3
-2 -0 4 24 21 16 13 12 13 13 12 8 8 3 8 4 5 6 6 7 5 4 5 7 5 4 5 7 3 4 6 6 5 6 6 6 5 6 4 5 4 4 4 6 4 6 3 6 7
-2 8 4 7 0 1 5 4 3 16 11 12 10 10 9 6 7 7 5 5 5 5 6 5 4 5 6 9 6 5 5 6 3 3 4 4 3 3 4 5 5 6 6 6 4 5 5 6 4
7 4 7 5 10 15 1 -3 13 11 18 11 11 12 12 10 10 7 7 6 7 7 6 4 4 4 4 5 6 7 5 5 4 3 6 5 5 5 5 8 8 6 6 7 7 6 6 4 6
-2 3 -10 -5 -5 -8 15 5 10 13 24 11 10 8 8 7 8 10 12 13 14 12 10 10 9 8 6 7 7 8 8 8 8 8 10 11 12 10 9 9 10 11 10 11 11 8 9 11 10
3 2 8 -15 16 0 8 3 8 14 18 6 6 10 9 10 8 10 10 7 6 6 7 9 10 11 12 12 11 11 10 9 8 8 9 9 9 9 9 9 7 6 7 6 6 6 6 9 6
8 -8 23 18 2 -1 -4 -12 12 2 17 12 12 9 8 8 8 6 7 7 8 9 7 6 6 7 10 10 9 9 8 7 5 5 5 5 7 7 8 7 6 7 8 8 8 9 9 9 6
1 -2 -12 16 4 2 2 3 3 9 -4 11 13 19 15 13 6 10 7 7 9 7 9 7 4 2 1 -0 -2 1 5 7 6 8 6 -0 4 6 4 3 5 6 9 9 10 11 9 12 12
11 -4 9 -1 3 4 17 4 -6 -4 2 14 9 11 14 14 14 7 9 7 12 12 10 12 20 16 11 8 5 7 10 20 16 12 11 9 6 5 5 5 6 6 8 8 6 7 5 5 5
-2 12 11 -5 -3 13 17 2 37 15 -14 27 15 4 7 5 10 9 8 9 8 10 8 10 15 18 14 9 9 7 8 3 14 21 16 18 16 15 19 11 9 8 5 5 6 6 6 6 5
7 -4 12 28 18 -14 -8 14 10 -2 -1 5 21 10 7 13 6 4 4 4 5 5 6 7 15 7 11 15 13 12 10 6 6 6 7 10 17 18 36 15 10 6 4 4 4 7 8 5 5
2 5 12 10 6 -1 13 23 -12 12 -0 3 -7 11 10 10 11 9 7 6 7 7 9 6 7 8 9 9 10 11 7 9 6 7 8 6 10 18 23 23 14 9 5 8 5 5 2 5 12
-7 25 10 0 1 1 11 -19 21 22 6 -1 -9 3 1 22 9 9 8 8 6 6 5 8 7 7 7 8 7 5 6 7 7 6 7 7 9 8 8 10 12 11 10 9 10 10 10 45 -26
-1 -8 -3 30 -0 -0 -0 -6 11 9 12 11 13 5 -4 17 -2 11 2 2 4 6 4 5 6 6 8 8 9 7 5 4 4 4 4 4 4 4 6 7 6 6 5 5 6 5 4 7 14
1 11 -0 -4 25 1 11 -2 0 6 4 23 6 4 -3 4 20 25 10 3 3 4 4 4 4 5 6 6 6 5 3 2 5 7 9 11 10 8 7 5 5 5 6 5 5 5 7 4 4
-4 8 11 3 -8 25 9 6 -13 11 -2 11 0 3 17 16 11 -6 12 16 4 11 9 4 4 4 4 4 6 3 1 2 10 5 5 5 6 7 9 9 7 6 4 4 8 10 11 8 7
Height
5912 5910 5911 5914 5916 5913 5911 5911 5912 5914 5915 5915 5917 5917 5917 5916 5917 5920 5918 5917 5919 5919 5919 5920 5921 5921 5923 5924 5925 5925 5927 5924 5925 5926 5926 5926 5926 5926 5925 5923 5923 5922 5920 5919 5919 5919 5920 5919 5918
5915 5913 5912 5915 5915 5914 5913 5912 5913 5916 5916 5916 5917 5917 5918 5917 5917 5917 5918 5920 5920 5920 5920 5921 5922 5923 5924 5925 5927 5927 5928 5927 5928 5928 5931 5927 5929 5928 5926 5925 5925 5923 5921 5921 5921 5921 5920 5921 5920
5915 5916 5918 5917 5918 5917 5914 5913 5914 5917 5918 5920 5920 5919 5917 5917 5917 5917 5918 5919 5921 5921 5921 5923 5924 5926 5926 5928 5929 5929 5929 5930 5930 5931 5932 5931 5931 5929 5927 5927 5926 5925 5923 5923 5922 5920 5920 5920 5920
5914 5918 5919 5921 5919 5917 5916 5915 5915 5916 5917 5919 5919 5918 5918 5917 5917 5919 5919 5920 5921 5922 5922 5924 5926 5927 5928 5929 5931 5931 5931 5932 5933 5935 5934 5933 5932 5931 5928 5928 5927 5927 5926 5925 5923 5922 5919 5919 5918
5917 5919 5919 5919 5917 5918 5918 5917 5918 5917 5915 5917 5920 5919 5918 5916 5916 5919 5920 5920 5920 5922 5923 5925 5928 5929 5929 5931 5932 5932 5933 5934 5936 5935 5935 5935 5934 5933 5931 5931 5930 5929 5928 5927 5926 5924 5923 5921 5920
5919 5917 5919 5919 5921 5919 5919 5921 5919 5919 5918 5917 5918 5919 5919 5918 5917 5917 5920 5921 5922 5923 5925 5927 5929 5929 5931 5933 5934 5934 5935 5936 5937 5936 5936 5936 5936 5935 5935 5934 5933 5932 5931 5930 5928 5928 5926 5923 5922
5915 5918 5921 5921 5923 5922 5922 5921 5920 5919 5918 5918 5916 5915 5915 5916 5917 5917 5918 5920 5922 5924 5926 5929 5930 5931 5933 5935 5936 5937 5937 5938 5937 5937 5937 5938 5938 5938 5937 5936 5935 5934 5933 5931 5930 5929 5928 5926 5922
5924 5924 5923 5924 5924 5923 5922 5924 5924 5922 5921 5919 5917 5915 5916 5915 5916 5917 5920 5921 5922 5925 5928 5929 5931 5934 5936 5936 5938 5938 5938 5939 5938 5939 5939 5940 5939 5939 5938 5938 5937 5936 5935 5933 5931 5929 5929 5927 5924
5929 5926 5925 5926 5926 5927 5924 5925 5925 5922 5920 5919 5918 5915 5914 5914 5915 5917 5919 5921 5923 5927 5929 5931 5934 5937 5937 5938 5940 5940 5939 5940 5940 5940 5941 5941 5941 5940 5940 5940 5939 5938 5937 5935 5933 5932 5931 5929 5927
5929 5930 5930 5932 5932 5930 5928 5926 5925 5925 5924 5923 5921 5919 5915 5915 5916 5917 5920 5923 5927 5929 5932 5935 5937 5937 5939 5939 5940 5940 5940 5941 5941 5942 5943 5943 5943 5941 5942 5942 5941 5940 5939 5937 5935 5934 5932 5931 5929
5930 5932 5932 5935 5933 5932 5930 5931 5928 5926 5925 5924 5924 5923 5918 5919 5920 5922 5926 5929 5931 5933 5935 5937 5938 5939 5939 5940 5941 5941 5941 5942 5942 5944 5945 5944 5944 5943 5944 5944 5943 5942 5941 5939 5936 5934 5933 5932 5931
5932 5935 5938 5938 5935 5933 5934 5932 5929 5929 5930 5930 5928 5928 5925 5926 5926 5928 5930 5932 5935 5937 5938 5939 5940 5940 5940 5941 5941 5942 5942 5942 5944 5945 5946 5945 5944 5944 5944 5945 5945 5944 5942 5940 5938 5937 5936 5934 5932
5938 5941 5940 5939 5938 5936 5934 5933 5933 5933 5933 5933 5932 5930 5929 5931 5931 5933 5934 5935 5937 5938 5939 5940 5940 5941 5941 5942 5943 5944 5944 5944 5945 5945 5946 5946 5946 5945 5945 5946 5945 5945 5943 5942 5939 5938 5937 5936 5933
5946 5943 5944 5942 5941 5941 5939 5938 5937 5935 5934 5934 5934 5934 5934 5934 5936 5936 5936 5937 5937 5939 5940 5941 5942 5942 5942 5943 5945 5945 5944 5944 5945 5945 5946 5947 5946 5945 5947 5946 5944 5945 5943 5941 5940 5938 5938 5936 5935
5952 5950 5947 5945 5944 5944 5945 5941 5938 5938 5937 5936 5936 5937 5938 5938 5939 5938 5938 5939 5940 5941 5942 5943 5942 5942 5944 5944 5944 5944 5945 5945 5944 5946 5947 5947 5946 5947 5947 5945 5944 5944 5943 5942 5941 5939 5938 5936 5934
5954 5953 5951 5948 5947 5948 5947 5944 5942 5940 5939 5938 5938 5938 5940 5940 5939 5940 5942 5942 5942 5943 5943 5943 5944 5945 5945 5945 5945 5945 5945 5946 5946 5944 5945 5946 5946 5946 5946 5944 5944 5944 5943 5941 5939 5938 5936 5935 5932
5957 5956 5955 5954 5952 5950 5951 5947 5945 5943 5941 5940 5940 5940 5940 5940 5940 5941 5941 5940 5941 5941 5943 5944 5944 5944 5944 5944 5944 5946 5946 5946 5945 5944 5944 5944 5945 5946 5945 5944 5943 5942 5941 5939 5937 5936 5934 5933 5930
5959 5958 5959 5957 5955 5954 5953 5951 5948 5945 5944 5943 5941 5940 5939 5939 5940 5939 5940 5941 5941 5942 5943 5943 5943 5943 5944 5944 5944 5944 5944 5943 5942 5943 5942 5941 5941 5941 5942 5941 5941 5940 5939 5938 5936 5934 5932 5932 5931
5960 5957 5959 5959 5957 5954 5957 5954 5951 5948 5945 5943 5942 5941 5939 5939 5940 5940 5941 5940 5942 5942 5942 5942 5943 5943 5941 5943 5943 5943 5943 5942 5942 5942 5941 5940 5940 5940 5939 5938 5937 5936 5936 5935 5933 5932 5932 5930 5928
5959 5957 5957 5960 5958 5956 5958 5957 5954 5950 5947 5943 5942 5943 5942 5942 5942 5942 5943 5942 5942 5942 5942 5942 5942 5941 5942 5942 5942 5942 5941 5941 5940 5940 5939 5939 5938 5938 5937 5936 5935 5934 5933 5932 5931 5930 5929 5928 5925
5954 5955 5954 5958 5959 5956 5958 5956 5957 5955 5950 5945 5943 5944 5945 5945 5944 5944 5944 5944 5943 5944 5943 5943 5942 5942 5942 5942 5941 5941 5941 5940 5940 5940 5939 5938 5937 5936 5935 5935 5934 5932 5931 5930 5928 5927 5925 5924 5922
5954 5958 5955 5956 5956 5957 5956 5956 5955 5956 5952 5948 5945 5944 5946 5946 5945 5945 5944 5944 5944 5944 5945 5943 5942 5942 5941 5941 5941 5940 5940 5940 5940 5940 5939 5938 5937 5936 5935 5933 5932 5931 5930 5928 5926 5924 5921 5919 5917
5950 5951 5955 5954 5955 5954 5954 5952 5954 5953 5953 5950 5948 5945 5947 5947 5946 5945 5945 5944 5944 5943 5944 5943 5942 5941 5940 5940 5940 5940 5939 5938 5938 5938 5937 5936 5935 5934 5933 5932 5931 5929 5928 5927 5925 5923 5920 5917 5914
5946 5947 5949 5952 5952 5953 5953 5951 5951 5951 5952 5953 5950 5948 5949 5949 5947 5946 5946 5945 5944 5943 5943 5943 5941 5940 5939 5939 5939 5940 5939 5939 5939 5937 5934 5933 5932 5929 5928 5928 5928 5928 5927 5926 5924 5922 5919 5915 5911
5943 5945 5945 5948 5948 5949 5952 5950 5950 5950 5949 5953 5953 5952 5952 5951 5949 5947 5945 5945 5945 5945 5944 5944 5942 5942 5941 5940 5940 5941 5941 5941 5938 5936 5933 5933 5930 5926 5924 5925 5925 5926 5926 5925 5922 5919 5916 5913 5909
5941 5942 5941 5943 5944 5945 5943 5948 5947 5946 5947 5950 5951 5951 5953 5953 5952 5950 5947 5947 5947 5946 5945 5945 5943 5943 5942 5941 5942 5942 5941 5940 5938 5936 5936 5934 5931 5927 5924 5924 5925 5926 5926 5923 5920 5917 5914 5908 5902
5935 5935 5942 5940 5941 5940 5939 5941 5941 5942 5944 5946 5947 5948 5951 5952 5953 5953 5950 5948 5948 5947 5947 5946 5944 5943 5943 5942 5942 5941 5941 5940 5938 5937 5936 5934 5932 5930 5927 5926 5926 5926 5924 5921 5919 5918 5911 5890 5894
5928 5932 5932 5935 5936 5935 5935 5935 5936 5939 5940 5942 5943 5945 5948 5951 5951 5952 5952 5949 5948 5948 5946 5945 5944 5943 5943 5942 5942 5941 5940 5939 5938 5937 5935 5934 5932 5930 5928 5927 5926 5925 5924 5922 5919 5914 5909 5904 5903
5922 5924 5926 5929 5931 5931 5931 5931 5931 5935 5936 5939 5940 5942 5945 5946 5947 5947 5950 5949 5947 5947 5946 5944 5943 5943 5942 5942 5941 5940 5940 5939 5937 5936 5934 5931 5929 5928 5926 5925 5924 5923 5920 5916 5914 5912 5909 5905 5902
5914 5917 5919 5920 5924 5926 5927 5929 5930 5932 5934 5935 5937 5940 5942 5943 5943 5944 5944 5945 5945 5946 5945 5942 5941 5941 5941 5941 5941 5940 5939 5938 5936 5934 5932 5930 5927 5925 5923 5922 5919 5917 5915 5912 5909 5907 5905 5902 5899